Regional Weather Roundup
Issued by NWS

Home | Current Version | Previous Version | Text Only | Print | Product List | Glossary On
Versions: 1 2 3 4 5 6 7 8 9 10 11 12 13 14 15 16 17 18 19 20 21 22 23 24 25 26 27 28 29 30 31 32 33 34 35 36 37 38 39 40 41 42 43 44 45 46 47 48 49 50
000
ASUS44 KOUN 070100
RWROK

WEATHER ROUNDUP FOR OKLAHOMA
NATIONAL WEATHER SERVICE NORMAN OK
800 PM CDT FRI MAY 06 2016

NOTE: "FAIR" INDICATES FEW OR NO CLOUDS BELOW 12,000 FEET WITH NO
      SIGNIFICANT WEATHER AND/OR OBSTRUCTIONS TO VISIBILITY.

OKZ001>007-009>012-014-015-017-070200-
NORTHWEST OKLAHOMA AND THE PANHANDLE

CITY           SKY/WX    TMP DP  RH WIND       PRES   REMARKS
GAGE           LGT RAIN  77  50  38 S15       29.94S
GUYMON         CLEAR     77  47  34 SE12      29.90S
ENID/WOODRING  PTCLDY    75  54  46 SE7       29.94S
$$

OKZ016-021>023-033>039-044-045-070200-
SOUTHWEST OKLAHOMA

CITY           SKY/WX    TMP DP  RH WIND       PRES   REMARKS
LAWTON/REGL    CLEAR     75  54  47 SE8       29.96F
FREDERICK      CLEAR     77  54  44 SE9       29.93F
CLINTON        CLEAR     75  50  41 SE14      29.98F
HOBART         CLEAR     76  51  41 S12       29.97S
$$

OKZ018>020-024>031-070200-
CENTRAL OKLAHOMA

CITY           SKY/WX    TMP DP  RH WIND       PRES   REMARKS
OKLAHOMA CITY  PTCLDY    72  53  51 S7        29.97F
OKC/WILEY POST CLEAR     75  52  44 S12       29.96F
STILLWATER     CLEAR     75  49  39 S9        29.95F
GUTHRIE        CLEAR     76  50  40 S7        29.95F
$$

OKZ008-013-054>072-070200-
NORTHEAST OKLAHOMA

CITY           SKY/WX    TMP DP  RH WIND       PRES   REMARKS
TULSA          PTCLDY    75  52  44 SE9       29.96S
TULSA/JONES    CLEAR     77  52  41 SE6       29.97F
PONCA CITY     CLEAR     78  48  34 S7        29.94F
BARTLESVILLE   CLEAR     73  52  47 SE6       29.97F
MUSKOGEE       CLEAR     70  53  54 SE5       30.00F
$$

OKZ032-040>043-046>053-073>077-070200-
SOUTH CENTRAL/SOUTHEAST OKLAHOMA

CITY           SKY/WX    TMP DP  RH WIND       PRES   REMARKS
MCALESTER      CLEAR     71  61  70 SE3       30.00F
$$




USA.gov is the U.S. government's official web portal to all federal, state and local government web resources and services.